Location: Molveno
(46.1500°N, 10.9667°E)
Time: 15:02:41
(UTC+00:00)

Cosmos-2242 - Pass Details

Date: 05 July 2020
Orbit: 592 x 616 km, 82.5° (Epoch: 10 August)

Event Time Altitude Azimuth Distance (km) Brightness Sun altitude
Rises 20:48:45 0° 345° (NNW) 2,871 7.9 -13.0°
Reaches altitude 10° 20:51:01 10° 340° (NNW) 1,966 6.9 -13.3°
Maximum altitude 20:55:12 49° 266° (W) 794 3.8 -13.7°
Enters shadow 20:59:06 12° 193° (SSW) 1,848 5.1 -14.0°
